FENGYUN 1C DEB

Satellite information

Favourite Embed

Satellite Type and Status

DEBRISIN ORBIT

Key statistics

Satellite FENGYUN 1C DEB at a glance.

Uptime

9619

Days in orbit

Revolutions

≈ 14.2

Per day

Orbit

SSO

Sun Synchronous Orbit

Inclination

99.2

Latest

Satellite identification and parameters

Extended collection of information and parameters for FENGYUN 1C DEB.

Object identification

Identified? True

Debris? True

Object name: FENGYUN 1C DEB

International designator: 1999-025MD

Object number (NORAD): 30004

Object ID (CCSDS): 30004

Country: PEOPLES REPUBLIC OF CHINA (PRC)

Current information (Y/N): Y

RCS size: SMALL

Orbital parameters

Period: 101.647 minutes

Inclination: 99.2258 deg

SMA: 7214.804 km

Apoapsis: 864.099 km

Periapsis: 809.238 km

RAAN: 69.1141 deg

Eccentricy: 0.00380195

Argument of periapsis: 250.5632 deg

Mean anomaly: 176.08 deg

Mean motion: 14.16661155 rev/day

Mean motion (dot): 0.00001531 rev/day2

B* drag term: 0.00078524296 1/REarth

Two-line elements (TLE)

Creation date: Sept. 8, 2025, 6:18 p.m.

Reference frame: TEME

Reference center: EARTH

Epoch: Sept. 8, 2025, 12:08 p.m. UTC

TLE line 0: 0 FENGYUN 1C DEB

TLE line 1: 1 30004U 99025MD 25251.50612551 .00001531 00000-0 78524-3 0 9991

TLE line 2: 2 30004 99.2258 69.1141 0038020 250.5632 176.0800 14.16661155959586

Live tracking on map

Real-time ground track for satellite FENGYUN 1C DEB.

In-orbit conjunctions

A list of the most updated potential collisions computed for object FENGYUN 1C DEB.

Target Orbit TCA Probability of collision Miss distance Type
DELTA 1 DEB SSO 2024-07-26 12:33:02 0.0002128087 207.0 (m) DEBRIS
COSMOS 1275 DEB LEO 2024-07-03 01:33:01 0.0001701043 395.0 (m) DEBRIS

Associated space launch

Chinese polar orbiting meteorological satellite

FENGYUN 1C DEB was lifted into orbit during the mission ‘Long March 4B | Feng Yun 1C’, on board a Long March 4B space rocket.

The launch took place on May 10, 1999, 1:33 a.m. from Launch Complex 7.

For more information about the launch, click the button.

Launch to space Long March 4B | Feng Yun 1C
Long March 4B | Feng Yun 1C

Agency: N/A

Status: Launch Successful

Launch date: May 10, 1999, 1:33 a.m. UTC

Rocket: Long March 4B

Launch pad: Launch Complex 7

Location: Taiyuan Satellite Launch Center, People's Republic of China

...

Latest news about this satellite

There are no fresh news available about this satellite. Check back as we update our databases every day.


Newsletter sign-up

Weekly statistics, charts and insights to help you stay on top of the space industry.